325 
ASUS46 KSEW 211310
RWRWA 

WASHINGTON REGIONAL WEATHER ROUNDUP
NATIONAL WEATHER SERVICE SEATTLE WA
600 AM PDT SAT JUL 21 2018

NOTE:"FAIR" INDICATES FEW OR NO CLOUDS BELOW 12,000 FEET WITH NO 
SIGNIFICANT WEATHER AND/OR OBSTRUCTIONS TO VISIBILITY.

WAZ507-509-555>559-211400-
SEATTLE, TACOMA, EVERETT, AND VICINITY
  
CITY           SKY/WX    TMP DP  RH WIND       PRES   REMARKS
EVERETT        CLEAR     51  49  92 CALM      30.13F                  
BOEING FIELD   CLEAR     57  49  74 CALM      30.14S                  
RENTON         CLEAR     55  48  77 CALM      30.14R                  
SEATAC AIRPORT PTCLDY    58  48  69 CALM      30.15R                  
JBLM-MCCHORD   CLEAR     48  48 100 CALM      30.15R                  
PUYALLUP       FAIR      48  48 100 CALM      30.15S                  
BREMERTON      CLEAR     45  45 100 CALM      30.15S                  
JBLM-FT LEWIS  CLEAR     47  47  99 SE5       30.15R                  
TACOMA NARROWS CLEAR     51  47  86 CALM      30.16R                  
$$
 
WAZ001-503-506-510-514-515-211400-
NORTH INTERIOR
  
CITY           SKY/WX    TMP DP  RH WIND       PRES   REMARKS
BELLINGHAM     CLEAR     52  49  89 S5        30.12R                  
FRIDAY HARBOR  CLEAR     51  48  89 CALM      30.14R                  
EASTSOUND      CLEAR     57  54  88 CALM      30.12R                  
PORT ANGELES   CLEAR     46  44  93 CALM      30.13F                  
EDIZ HOOK      FAIR      51  49  91 NW5       30.13R                  
PORT TOWNSEND  FAIR      46  46 100 CALM      30.13S                  
NAS WHIDBEY    PTCLDY    52  48  86 CALM      30.17R                  
ARLINGTON      CLEAR     47  46  97 CALM      30.14R                  
BURLINGTON     CLEAR     48  46  93 CALM      30.13R                  
$$
 
WAZ020-022-039-040-504-511-512-211400-
SOUTHWEST INTERIOR
  
CITY           SKY/WX    TMP DP  RH WIND       PRES   REMARKS
SHELTON        CLOUDY    52  50  93 W7        30.14R                  
OLYMPIA        PTCLDY    45  44  97 CALM      30.15S                  
CHEHALIS       FAIR      48  48 100 CALM      30.16R                  
KELSO          CLEAR     49  46  90 NW5       30.17R                  
VANCOUVER      CLEAR     55  50  83 N3        30.15R                  
SCAPPOOSE, OR  CLEAR     52  47  83 N6        30.14R                  
PORTLAND, OR   PTCLDY    56  49  77 N3        30.15R                  
$$
 
WAZ021-516-517-211400-
WASHINGTON COAST
  
CITY           SKY/WX    TMP DP  RH WIND       PRES   REMARKS
FORKS          CLOUDY    52  50  93 CALM      30.14R                  
HOQUIAM        CLOUDY    55  53  93 CALM      30.16S                  
ASTORIA, OR    CLOUDY    57  53  86 N8        30.17R                  
$$
 
WAZ019-023-024-040-567>569-211400-
CASCADE MOUNTAINS AND COLUMBIA GORGE
  
CITY           SKY/WX    TMP DP  RH WIND       PRES   REMARKS
STAMPEDE PASS  CLEAR     43  42  97 SW5       30.14S                  
TROUTDALE, OR  CLEAR     52  48  86 CALM      30.15R                  
HOOD RIVER, OR SUNNY     52  45  76 CALM      30.08R                  
THE DALLES, OR CLEAR     61  47  59 NW16      30.05R                  
$$

WAZ026-027-041>044-520-521-211400-
EAST SLOPES
  
CITY           SKY/WX    TMP DP  RH WIND       PRES   REMARKS
OMAK           CLEAR     57  42  57 NW13      30.05S                  
WENATCHEE      CLEAR     57  40  52 N9        30.05R                  
ELLENSBURG     CLEAR     57  39  51 NW13      30.06R                  
YAKIMA         CLEAR     48  40  73 W6        30.05R                  
SUNNYSIDE ARPT SUNNY     47  42  81 CALM      30.04R                  
YAKIMA TC        N/A     58  34  40 NE3       30.04R                  
$$

WAZ028-034-035-211400-
COLUMBIA BASIN
  
CITY           SKY/WX    TMP DP  RH WIND       PRES   REMARKS
EPHRATA        CLEAR     61  36  39 NW12      30.02R                  
MOSES LAKE     CLEAR     59  35  40 W8        30.03R                  
PASCO          CLEAR     50  44  80 CALM      30.03S                  
RICHLAND ARPT  SUNNY     58  39  49 CALM      30.03S                  
HERMISTON, OR  CLEAR     48  39  71 SE3       30.03R                  
$$

WAZ036>038-211400-
NORTHEAST WASHINGTON
  
CITY           SKY/WX    TMP DP  RH WIND       PRES   REMARKS
SPOKANE GEIGER PTCLDY    54  34  46 S6        30.01R                  
SPOKANE FELTS  CLEAR     54  39  57 CALM      30.01R                  
FAIRCHILD AFB  CLEAR     49  35  58 S9        30.01R                  
COEURDALENE,ID CLEAR     57  43  59 S9        30.01S                  
DEER PARK      CLEAR     41  33  73 CALM      30.01R                  
$$

WAZ029>033-211400-
SOUTHEAST WASHINGTON
  
CITY           SKY/WX    TMP DP  RH WIND       PRES   REMARKS
PULLMAN        CLEAR     46  35  65 CALM      30.06S                  
LEWISTON, ID   CLEAR     56  35  45 S3        30.03R                  
WALLA WALLA    CLEAR     61  38  42 S6        30.05R                  
PENDLETON, OR  CLEAR     49  33  54 SE8       30.05R                  
$$